Time,TemperatureF,DewpointF,PressureIn,WindDirection,WindDirectionDegrees,WindSpeedMPH,WindSpeedGustMPH,Humidity,HourlyPrecipIn,Conditions,Clouds,dailyrainin,SoftwareType,DateUTC
2013-05-16 00:10:00,70.9,68.0,29.97,SE,146,7.0,11.0,90,0.00,,,0.00,weatherlink.com 1.10,2013-05-16 05:10:00,
2013-05-16 00:25:00,70.9,68.0,29.97,SE,142,3.0,12.0,90,0.00,,,0.00,weatherlink.com 1.10,2013-05-16 05:25:00,
2013-05-16 00:40:00,71.0,68.0,29.97,SSE,152,5.0,11.0,90,0.00,,,0.00,weatherlink.com 1.10,2013-05-16 05:40:00,
2013-05-16 00:54:00,70.9,68.0,29.97,SE,140,1.0,10.0,90,0.00,,,0.00,weatherlink.com 1.10,2013-05-16 05:54:00,
2013-05-16 01:09:00,71.0,68.0,29.96,SSE,165,3.0,5.0,90,0.00,,,0.00,weatherlink.com 1.10,2013-05-16 06:09:00,
2013-05-16 01:24:00,70.9,68.0,29.96,SSE,156,1.0,11.0,90,0.00,,,0.00,weatherlink.com 1.10,2013-05-16 06:24:00,
2013-05-16 01:39:00,70.8,68.0,29.97,SSE,164,0.0,6.0,91,0.00,,,0.00,weatherlink.com 1.10,2013-05-16 06:39:00,
2013-05-16 01:54:00,70.9,67.0,29.97,South,177,4.0,8.0,89,0.00,,,0.00,weatherlink.com 1.10,2013-05-16 06:54:00,
2013-05-16 02:09:00,71.3,68.0,29.96,SSE,166,4.0,12.0,88,0.00,,,0.00,weatherlink.com 1.10,2013-05-16 07:09:00,
2013-05-16 02:24:00,71.3,68.0,29.96,SSW,204,6.0,7.0,88,0.00,,,0.00,weatherlink.com 1.10,2013-05-16 07:24:00,
2013-05-16 02:39:00,71.1,67.0,29.96,SW,218,2.0,8.0,88,0.00,,,0.00,weatherlink.com 1.10,2013-05-16 07:39:00,
2013-05-16 02:54:00,71.0,67.0,29.97,SSE,153,1.0,7.0,88,0.00,,,0.00,weatherlink.com 1.10,2013-05-16 07:54:00,
2013-05-16 03:09:00,70.7,67.0,29.96,SSE,159,2.0,8.0,89,0.00,,,0.00,weatherlink.com 1.10,2013-05-16 08:09:00,
2013-05-16 09:42:00,76.4,69.0,29.94,South,180,14.0,16.0,78,0.00,,,0.00,weatherlink.com 1.10,2013-05-16 14:42:00,
2013-05-16 09:59:00,77.1,69.0,29.94,South,181,11.0,16.0,76,0.00,,,0.00,weatherlink.com 1.10,2013-05-16 14:59:00,
2013-05-16 10:14:00,77.2,69.0,29.94,SSE,163,2.0,17.0,75,0.00,,,0.00,weatherlink.com 1.10,2013-05-16 15:14:00,
2013-05-16 10:29:00,77.6,69.0,29.94,SSW,194,8.0,15.0,75,0.00,,,0.00,weatherlink.com 1.10,2013-05-16 15:29:00,
2013-05-16 10:44:00,78.0,69.0,29.94,SSW,205,9.0,14.0,74,0.00,,,0.00,weatherlink.com 1.10,2013-05-16 15:44:00,
2013-05-16 10:59:00,77.8,69.0,29.94,South,177,8.0,19.0,75,0.00,,,0.00,weatherlink.com 1.10,2013-05-16 15:59:00,
2013-05-16 11:14:00,78.1,68.0,29.93,SW,232,14.0,17.0,71,0.00,,,0.00,weatherlink.com 1.10,2013-05-16 16:14:00,
2013-05-16 11:28:00,77.9,69.0,29.93,SSE,158,6.0,17.0,75,0.00,,,0.00,weatherlink.com 1.10,2013-05-16 16:28:00,
2013-05-16 11:43:00,78.4,70.0,29.93,South,191,6.0,16.0,76,0.00,,,0.00,weatherlink.com 1.10,2013-05-16 16:43:00,
2013-05-16 11:58:00,77.5,69.0,29.93,SSE,152,10.0,21.0,76,0.00,,,0.00,weatherlink.com 1.10,2013-05-16 16:58:00,
2013-05-16 12:13:00,78.1,70.0,29.92,South,184,15.0,16.0,76,0.00,,,0.00,weatherlink.com 1.10,2013-05-16 17:13:00,
2013-05-16 12:28:00,78.3,69.0,29.92,South,180,9.0,17.0,73,0.00,,,0.00,weatherlink.com 1.10,2013-05-16 17:28:00,
2013-05-16 12:43:00,79.6,70.0,29.93,SW,214,7.0,14.0,72,0.00,,,0.00,weatherlink.com 1.10,2013-05-16 17:43:00,
2013-05-16 12:58:00,78.8,69.0,29.93,South,186,6.0,18.0,73,0.00,,,0.00,weatherlink.com 1.10,2013-05-16 17:58:00,
2013-05-16 13:13:00,79.1,69.0,29.93,SW,222,10.0,15.0,71,0.00,,,0.00,weatherlink.com 1.10,2013-05-16 18:13:00,
2013-05-16 13:28:00,78.7,69.0,29.93,SSW,206,7.0,17.0,72,0.00,,,0.00,weatherlink.com 1.10,2013-05-16 18:28:00,
2013-05-16 13:43:00,79.0,69.0,29.93,SSE,152,8.0,16.0,72,0.00,,,0.00,weatherlink.com 1.10,2013-05-16 18:43:00,
2013-05-16 13:58:00,79.0,69.0,29.93,WSW,250,4.0,20.0,71,0.00,,,0.00,weatherlink.com 1.10,2013-05-16 18:58:00,
2013-05-16 14:13:00,78.7,69.0,29.92,ESE,121,7.0,17.0,71,0.00,,,0.00,weatherlink.com 1.10,2013-05-16 19:13:00,
2013-05-16 14:28:00,79.6,69.0,29.92,SW,218,5.0,15.0,69,0.00,,,0.00,weatherlink.com 1.10,2013-05-16 19:28:00,
2013-05-16 14:43:00,78.9,69.0,29.91,WSW,252,11.0,16.0,71,0.00,,,0.00,weatherlink.com 1.10,2013-05-16 19:43:00,
2013-05-16 14:58:00,79.3,68.0,29.91,SSE,166,3.0,17.0,68,0.00,,,0.00,weatherlink.com 1.10,2013-05-16 19:58:00,
2013-05-16 15:13:00,78.8,68.0,29.91,SE,135,8.0,16.0,70,0.00,,,0.00,weatherlink.com 1.10,2013-05-16 20:13:00,
2013-05-16 15:28:00,78.7,67.0,29.90,SSE,152,3.0,16.0,68,0.00,,,0.00,weatherlink.com 1.10,2013-05-16 20:28:00,
2013-05-16 15:42:00,78.0,68.0,29.90,SW,214,5.0,18.0,71,0.00,,,0.00,weatherlink.com 1.10,2013-05-16 20:42:00,
2013-05-16 15:57:00,77.7,68.0,29.89,SSE,155,8.0,16.0,72,0.00,,,0.00,weatherlink.com 1.10,2013-05-16 20:57:00,
2013-05-16 16:13:00,77.4,68.0,29.89,SSE,158,9.0,17.0,73,0.00,,,0.00,weatherlink.com 1.10,2013-05-16 21:13:00,
2013-05-16 16:27:00,77.2,69.0,29.89,South,186,1.0,16.0,75,0.00,,,0.00,weatherlink.com 1.10,2013-05-16 21:27:00,
2013-05-16 16:42:00,77.3,69.0,29.90,SE,140,12.0,12.0,75,0.00,,,0.00,weatherlink.com 1.10,2013-05-16 21:42:00,
2013-05-16 16:57:00,76.7,69.0,29.89,SSE,166,9.0,18.0,76,0.00,,,0.00,weatherlink.com 1.10,2013-05-16 21:57:00,
2013-05-16 17:12:00,76.6,69.0,29.89,South,176,9.0,13.0,77,0.00,,,0.00,weatherlink.com 1.10,2013-05-16 22:12:00,
2013-05-16 17:27:00,76.5,69.0,29.89,SE,141,7.0,14.0,78,0.00,,,0.00,weatherlink.com 1.10,2013-05-16 22:27:00,
2013-05-16 17:42:00,76.3,69.0,29.89,South,191,5.0,13.0,78,0.00,,,0.00,weatherlink.com 1.10,2013-05-16 22:42:00,
2013-05-16 17:57:00,76.2,69.0,29.89,SSW,197,6.0,12.0,78,0.00,,,0.00,weatherlink.com 1.10,2013-05-16 22:57:00,
2013-05-16 18:12:00,75.8,69.0,29.88,SW,219,2.0,14.0,80,0.00,,,0.00,weatherlink.com 1.10,2013-05-16 23:12:00,
2013-05-16 18:27:00,75.4,69.0,29.88,WSW,244,10.0,15.0,80,0.00,,,0.00,weatherlink.com 1.10,2013-05-16 23:27:00,
2013-05-16 18:42:00,75.3,69.0,29.88,SE,131,5.0,12.0,81,0.00,,,0.00,weatherlink.com 1.10,2013-05-16 23:42:00,
2013-05-16 18:56:00,75.1,69.0,29.89,South,191,4.0,11.0,82,0.00,,,0.00,weatherlink.com 1.10,2013-05-16 23:56:00,
2013-05-16 19:12:00,74.8,69.0,29.89,SE,145,7.0,15.0,83,0.00,,,0.00,weatherlink.com 1.10,2013-05-17 00:12:00,
2013-05-16 19:26:00,74.7,69.0,29.89,ESE,119,8.0,10.0,82,0.00,,,0.00,weatherlink.com 1.10,2013-05-17 00:26:00,
2013-05-16 19:41:00,74.4,69.0,29.89,SSE,159,5.0,13.0,83,0.00,,,0.00,weatherlink.com 1.10,2013-05-17 00:41:00,
2013-05-16 19:56:00,74.3,69.0,29.89,SSE,165,2.0,10.0,84,0.00,,,0.00,weatherlink.com 1.10,2013-05-17 00:56:00,
2013-05-16 20:11:00,74.1,69.0,29.89,SE,139,3.0,8.0,84,0.00,,,0.00,weatherlink.com 1.10,2013-05-17 01:11:00,
2013-05-16 20:26:00,74.0,69.0,29.89,South,179,3.0,11.0,84,0.00,,,0.00,weatherlink.com 1.10,2013-05-17 01:26:00,
2013-05-16 20:41:00,74.0,69.0,29.89,South,182,4.0,7.0,85,0.00,,,0.00,weatherlink.com 1.10,2013-05-17 01:41:00,
2013-05-16 20:56:00,73.9,69.0,29.89,SSE,155,4.0,11.0,85,0.00,,,0.00,weatherlink.com 1.10,2013-05-17 01:56:00,
2013-05-16 21:11:00,73.7,69.0,29.89,South,178,5.0,10.0,85,0.00,,,0.00,weatherlink.com 1.10,2013-05-17 02:11:00,
2013-05-16 21:26:00,73.8,69.0,29.89,SW,224,8.0,11.0,85,0.00,,,0.00,weatherlink.com 1.10,2013-05-17 02:26:00,
2013-05-16 21:41:00,73.7,70.0,29.90,WSW,239,8.0,16.0,87,0.00,,,0.00,weatherlink.com 1.10,2013-05-17 02:41:00,
2013-05-16 21:55:00,73.6,70.0,29.90,SSW,207,6.0,10.0,88,0.00,,,0.00,weatherlink.com 1.10,2013-05-17 02:55:00,
2013-05-16 22:11:00,73.6,69.0,29.90,WSW,250,3.0,14.0,87,0.00,,,0.00,weatherlink.com 1.10,2013-05-17 03:11:00,
2013-05-16 22:26:00,73.5,70.0,29.91,SW,228,10.0,10.0,88,0.00,,,0.00,weatherlink.com 1.10,2013-05-17 03:26:00,
2013-05-16 22:41:00,73.2,70.0,29.91,SSW,205,5.0,14.0,89,0.00,,,0.00,weatherlink.com 1.10,2013-05-17 03:41:00,
2013-05-16 22:56:00,73.0,70.0,29.91,South,177,7.0,10.0,90,0.00,,,0.00,weatherlink.com 1.10,2013-05-17 03:56:00,
2013-05-16 23:10:00,73.1,70.0,29.91,SW,222,3.0,6.0,90,0.00,,,0.00,weatherlink.com 1.10,2013-05-17 04:10:00,
2013-05-16 23:25:00,73.1,70.0,29.90,SSW,205,4.0,12.0,90,0.00,,,0.00,weatherlink.com 1.10,2013-05-17 04:25:00,
2013-05-16 23:40:00,73.1,70.0,29.90,SSE,157,6.0,10.0,90,0.00,,,0.00,weatherlink.com 1.10,2013-05-17 04:40:00,
2013-05-16 23:55:00,72.8,70.0,29.90,SSE,156,2.0,12.0,90,0.00,,,0.00,weatherlink.com 1.10,2013-05-17 04:55:00,